This is the latest recevied weather packets stored in our database for station/object DG1ROH. If no packets are shown the sender has not sent any weather packets the latest 1 day(s).
| Time | Temp. | Humidity | Pressure | Rain* | Wind** | Luminosity | Snow |
|---|---|---|---|---|---|---|---|
| 1777965194 | 13.33° C | 94% | 1009.2 hPa | 0 mm | 0.45 m/s, 66° | 121 W/m² | - |
| 1777965074 | 13.33° C | 94% | 1009.2 hPa | 0 mm | 0.45 m/s, 61° | 132 W/m² | - |
| 1777964958 | 12.78° C | 94% | 1009.2 hPa | 0 mm | 0.45 m/s, 90° | 137 W/m² | - |
| 1777964835 | 12.78° C | 94% | 1009.2 hPa | 0 mm | 0.89 m/s, 90° | 142 W/m² | - |
| 1777964715 | 12.78° C | 94% | 1009.2 hPa | 0 mm | 0.89 m/s, 48° | 155 W/m² | - |
| 1777964594 | 12.78° C | 94% | 1009.2 hPa | 0 mm | 0.89 m/s, 39° | 162 W/m² | - |
| 1777964474 | 12.78° C | 94% | 1009.2 hPa | 0 mm | 0.45 m/s, 66° | 167 W/m² | - |
| 1777964354 | 12.78° C | 94% | 1009.2 hPa | 0 mm | 0.45 m/s, 22° | 167 W/m² | - |
| 1777964234 | 12.78° C | 94% | 1009.2 hPa | 0 mm | 0.45 m/s, 65° | 163 W/m² | - |
| 1777964114 | 12.78° C | 94% | 1009.3 hPa | 0 mm | 0.45 m/s, 124° | 155 W/m² | - |
| 1777963994 | 12.78° C | 94% | 1009.3 hPa | 0 mm | 0.45 m/s, 49° | 148 W/m² | - |
| 1777963874 | 12.78° C | 94% | 1009.2 hPa | 0 mm | 0.89 m/s, 51° | 141 W/m² | - |
| 1777963752 | 12.78° C | 94% | 1009.2 hPa | 0 mm | 0.89 m/s, 56° | 130 W/m² | - |
| 1777963630 | 12.78° C | 94% | 1009.2 hPa | 0 mm | 0.89 m/s, 32° | 123 W/m² | - |
| 1777963510 | 12.78° C | 94% | 1009.2 hPa | 0 mm | 0.45 m/s, 34° | 120 W/m² | - |
| 1777963388 | 12.78° C | 94% | 1009.2 hPa | 0 mm | 0.45 m/s, 52° | 114 W/m² | - |
| 1777963268 | 12.78° C | 94% | 1009.2 hPa | 0 mm | 0.45 m/s, 54° | 109 W/m² | - |
| 1777963157 | 12.78° C | 94% | 1009.2 hPa | 0 mm | 0 m/s | 104 W/m² | - |
| 1777963028 | 12.78° C | 94% | 1009.3 hPa | 0 mm | 0.45 m/s, 49° | 97 W/m² | - |
| 1777962902 | 12.78° C | 94% | 1009.2 hPa | 0 mm | 0.45 m/s, 49° | 93 W/m² | - |
| 1777962782 | 12.78° C | 94% | 1009.4 hPa | 0.25 mm | 0.45 m/s, 49° | 88 W/m² | - |
| 1777962662 | 12.78° C | 94% | 1009.4 hPa | 0.25 mm | 0 m/s | 86 W/m² | - |
| 1777962542 | 12.78° C | 94% | 1009.4 hPa | 0.25 mm | 0 m/s | 84 W/m² | - |
| 1777962422 | 12.78° C | 94% | 1009.3 hPa | 0.25 mm | 0 m/s | 83 W/m² | - |
| 1777962303 | 12.78° C | 94% | 1009.5 hPa | 0.25 mm | 0 m/s | 77 W/m² | - |
* Rain latest hour (hover to see other rain measurements)
** Current wind speed in m/s (hover to see current wind gust speed)